Powrót do katalogu

TIANMU-1 04

AktywnyMilitariaSSO
NORAD 55974·PAYLOAD·🇨🇳 China

Wystrzelony Mar 22, 2023 z Jiuquan Satellite Launch Center

Loading…

Następne Przeloty (najbliższe 24 godziny)

TLE

ŚwieżeSource: Space-Track

Epoka: Sep 14, 2026, 22:57 UTC

1 55974U 23039B   26257.95684491  .00016392  00000-0  29087-3 0  9995
2 55974  97.5200  74.7986 0004773 112.2506 247.9252 15.50298113194745

Śledź TIANMU-1 04 w czasie rzeczywistym z AllMySat

Download on the App Store